This is the latest recevied weather packets stored in our database for station/object EB5AGF-13. If no packets are shown the sender has not sent any weather packets the latest 10 day(s).
| Time | Temp. | Humidity | Pressure | Rain* | Wind** | Luminosity | Snow |
|---|---|---|---|---|---|---|---|
| 1777924250 | 19.44° C | 78% | 1007.9 hPa | 0 mm | 1.79 m/s, 200° | 0 W/m² | - |
| 1777923944 | 19.44° C | 78% | 1007.8 hPa | 0 mm | 0.89 m/s, 235° | 0 W/m² | - |
| 1777923640 | 19.44° C | 78% | 1007.7 hPa | 0 mm | 0.89 m/s, 232° | 0 W/m² | - |
| 1777923336 | 19.44° C | 78% | 1007.9 hPa | 0 mm | 0.89 m/s, 198° | 0 W/m² | - |
| 1777923032 | 19.44° C | 78% | 1007.7 hPa | 0 mm | 1.79 m/s, 205° | 0 W/m² | - |
| 1777922728 | 19.44° C | 78% | 1007.6 hPa | 0 mm | 1.34 m/s, 219° | 0 W/m² | - |
| 1777922424 | 19.44° C | 78% | 1007.6 hPa | 0 mm | 2.24 m/s, 200° | 0 W/m² | - |
| 1777922121 | 19.44° C | 79% | 1007.6 hPa | 0 mm | 0.89 m/s, 199° | 0 W/m² | - |
| 1777921800 | 19.44° C | 79% | 1007.5 hPa | 0 mm | 0.45 m/s, 252° | 0 W/m² | - |
| 1777921496 | 19.44° C | 79% | 1007.2 hPa | 0 mm | 1.79 m/s, 215° | 1 W/m² | - |
| 1777921192 | 19.44° C | 78% | 1007.5 hPa | 0 mm | 1.34 m/s, 180° | 2 W/m² | - |
| 1777920889 | 19.44° C | 79% | 1007.3 hPa | 0 mm | 0.45 m/s, 196° | 3 W/m² | - |
| 1777920585 | 19.44° C | 80% | 1007.4 hPa | 0 mm | 0.45 m/s, 0° | 5 W/m² | - |
| 1777920281 | 19.44° C | 79% | 1007.4 hPa | 0 mm | 1.79 m/s, 202° | 7 W/m² | - |
| 1777919972 | 19.44° C | 79% | 1007.3 hPa | 0 mm | 0.89 m/s, 107° | 9 W/m² | - |
| 1777919671 | 20° C | 79% | 1007.2 hPa | 0 mm | 3.58 m/s, 189° | 12 W/m² | - |
| 1777919369 | 20° C | 79% | 1006.9 hPa | 0 mm | 1.34 m/s, 222° | 16 W/m² | - |
| 1777919064 | 20° C | 79% | 1007 hPa | 0 mm | 1.34 m/s, 3° | 20 W/m² | - |
| 1777918760 | 20° C | 78% | 1007.2 hPa | 0 mm | 0.89 m/s, 237° | 24 W/m² | - |
| 1777918456 | 20° C | 78% | 1007.2 hPa | 0 mm | 1.79 m/s, 214° | 29 W/m² | - |
| 1777918154 | 20° C | 78% | 1007.3 hPa | 0 mm | 3.58 m/s, 192° | 34 W/m² | - |
| 1777917848 | 20° C | 77% | 1007.2 hPa | 0 mm | 1.34 m/s, 216° | 40 W/m² | - |
| 1777917544 | 20° C | 78% | 1007.2 hPa | 0 mm | 0.89 m/s, 84° | 46 W/m² | - |
| 1777917240 | 20° C | 77% | 1007.1 hPa | 0 mm | 3.58 m/s, 230° | 54 W/m² | - |
| 1777916936 | 20° C | 78% | 1007.1 hPa | 0 mm | 1.34 m/s, 2° | 60 W/m² | - |
* Rain latest hour (hover to see other rain measurements)
** Current wind speed in m/s (hover to see current wind gust speed)